Location: Unspecified
(40.9447°N, 78.9903°W)
Time: 10:32:49
(UTC-04:00)

CZ-3 Stage 3 - Pass Details

Date: 31 July 2021
Orbit: 451 x 34732 km, 30.4° (Epoch: 19 September)

Event Time Altitude Azimuth Distance (km) Brightness Sun altitude
Rises 00:14:27 0° 239° (WSW) 9,102 7.9 -28.8°
Reaches altitude 10° 00:24:35 10° 228° (SW) 4,894 6.4 -29.3°
Enters shadow 00:26:06 12° 224° (SW) 4,232 6.0 -29.4°
